Lid_Strength_Index
3 2 2 1 1 0 0 0 0 -0 -0 0 0 0 0 -0 -0 -1 -1 -2 -2 -1 -1 1 1 1 1 1 1 1 2 2 1 2 2 2 3 3 3 3 4 4 4
4 3 2 1 1 1 1 0 0 0 -0 -0 -0 -0 -0 -0 -1 -1 -1 -2 -1 -0 0 1 1 1 1 1 1 1 2 2 2 3 4 4 4 4 4 3 4 3 3
4 3 3 2 1 1 1 1 0 0 -0 -0 -0 -0 -0 -0 0 -0 -0 -1 0 -0 0 1 1 1 0 1 1 1 2 3 3 3 5 8 7 6 4 4 4 4 4
3 3 3 2 2 1 0 0 0 0 -0 -0 0 0 1 2 1 0 -0 0 1 1 1 1 1 1 0 1 1 2 2 3 5 4 6 6 7 8 8 5 4 4 4
4 3 3 2 2 1 1 0 0 0 -0 -0 -0 0 1 0 -0 -0 0 0 1 2 2 1 1 1 1 1 2 2 3 5 4 6 7 7 6 6 7 7 6 5 5
3 3 2 2 2 1 1 1 1 0 0 0 -0 0 1 1 1 1 1 2 2 3 2 2 2 1 1 1 2 3 4 5 5 6 6 6 7 7 7 8 7 7 6
3 3 3 3 2 2 1 1 1 1 0 0 0 0 0 0 1 1 1 2 3 3 2 2 2 1 2 2 4 4 6 6 7 7 5 6 6 5 6 7 7 7 6
3 3 3 2 2 2 2 1 1 1 1 1 0 0 0 1 1 0 1 2 4 2 1 2 2 2 3 4 6 4 5 7 7 5 5 5 5 5 6 7 7 8 7
3 3 2 2 2 2 2 1 1 1 1 1 0 1 0 1 1 0 1 3 3 2 2 2 2 3 4 6 6 6 7 7 6 5 5 5 5 5 5 5 6 6 8
4 3 2 2 2 1 1 1 1 1 1 0 1 0 0 0 0 0 2 3 2 2 2 3 4 7 6 7 7 7 8 7 6 6 6 5 5 5 5 6 5 4 6
4 3 3 2 2 1 1 1 1 1 1 1 0 1 1 0 0 1 2 3 3 3 3 4 6 7 8 8 8 8 8 7 6 5 5 5 5 5 5 5 4 4 4
4 3 3 2 2 2 2 1 1 1 1 0 1 1 1 1 3 3 4 4 5 6 7 7 8 8 8 8 8 7 6 6 6 6 5 6 6 5 5 4 4 4 3
3 3 3 3 3 2 2 2 1 1 1 1 2 4 5 5 6 6 6 7 7 7 7 7 8 8 8 8 7 7 6 5 5 6 6 6 6 5 4 4 4 4 4
3 3 3 3 3 2 2 2 2 2 3 4 6 6 7 6 6 6 6 7 6 7 8 7 7 7 7 8 6 6 5 5 5 5 6 5 5 5 4 4 4 4 4
4 3 4 3 3 3 2 2 3 5 5 6 6 6 6 6 7 7 7 6 7 7 6 6 6 6 6 6 6 5 5 5 6 6 6 5 5 5 5 5 4 4 4
4 4 3 3 3 3 3 3 3 4 5 6 7 7 7 7 6 8 7 6 6 7 7 8 7 7 6 7 8 8 6 6 6 6 5 4 5 5 6 6 6 5 4
5 4 4 3 3 3 3 4 4 4 5 6 6 6 6 6 6 7 8 8 7 7 7 6 6 5 5 8 9 9 7 6 6 6 5 5 4 5 4 5 6 6 5
4 4 3 3 2 2 2 3 3 3 4 4 4 5 6 7 7 7 7 7 6 6 5 5 6 6 6 9 10 10 7 6 6 5 5 4 4 3 3 3 3 2 2
4 4 3 3 3 3 3 4 4 5 6 6 7 6 7 7 7 7 7 7 6 6 6 7 7 7 7 9 10 9 7 7 6 5 4 4 4 4 4 3 3 3 3
5 5 4 4 4 3 4 5 6 6 6 6 7 6 6 6 7 7 7 7 7 8 7 8 7 8 7 9 10 9 8 7 6 5 5 6 5 5 5 3 3 4 3
6 5 5 5 4 4 4 5 5 6 5 6 7 7 8 8 8 8 8 8 7 7 7 8 8 8 9 9 10 10 9 9 9 8 7 5 6 5 4 4 3 4 2
7 6 6 6 5 4 5 6 6 6 7 8 9 8 9 9 9 9 8 8 9 10 10 10 10 9 9 11 10 10 9 9 9 8 6 5 5 5 5 4 4 4 4
7 7 7 7 6 6 6 8 8 8 8 9 9 9 10 10 11 11 11 11 11 11 11 11 11 11 10 10 11 11 10 10 9 8 7 7 6 6 6 5 5 5 4
7 7 8 8 8 8 8 8 8 9 9 10 11 11 12 12 12 12 12 11 11 12 12 12 12 12 12 11 11 11 10 10 9 9 7 6 6 6 6 5 4 4 4
8 8 8 9 10 10 10 10 10 10 11 12 13 13 13 13 12 12 12 12 12 13 13 13 13 13 13 13 13 12 11 11 10 9 7 6 5 5 4 3 3 3 3
8 9 10 10 11 12 13 12 12 12 13 14 14 14 13 13 13 12 12 14 14 14 15 15 15 13 14 14 13 12 12 11 10 8 8 8 6 4 4 3 3 3 3